This demonstration page uses our WeatherBlox Daily Observations layout. Learn more.

Left ArrowRight Arrow

30.00354, -91.81873

Hourly Observations for September 29, 2022

Temp ( °F °C ) Dew Point ( °F °C ) Humidity (%) Winds ( mph kmh ) Pressure ( in mb ) Visibility ( mi km ) Precip ( " mm )
12:53 am 00:53 Clear 60 15.6 49 9.4 67 67 N 6 9 30.16 1022 10 16 0.00 0.00
1:53 am 01:53 Clear 59 15 49 9.4 69 69 NNE 7 11 30.17 1022 10 16 0.00 0.00
2:53 am 02:53 Clear 58 14.4 49 9.4 72 72 N 7 11 30.16 1022 10 16 0.00 0.00
3:53 am 03:53 Clear 56 13.3 48 8.9 75 75 N 7 11 30.16 1021 10 16 0.00 0.00
4:53 am 04:53 Clear 56 13.3 47 8.3 72 72 N 8 13 30.16 1021 10 16 0.00 0.00
5:53 am 05:53 Clear 53 11.7 46 7.8 77 77 N 7 11 30.17 1022 10 16 0.00 0.00
6:53 am 06:53 Clear 52 11.1 45 7.2 77 77 N 7 11 30.18 1022 10 16 0.00 0.00
7:53 am 07:53 Sunny 56 13.3 46 7.8 69 69 N 10 17 30.18 1022 10 16 0.00 0.00
8:53 am 08:53 Sunny 60 15.6 45 7.2 57 57 N 12 19 30.19 1022 10 16 0.00 0.00
9:53 am 09:53 Sunny 65 18.3 45 7.2 48 48 NNE 13 20 30.19 1022 10 16 0.00 0.00
10:53 am 10:53 Sunny 68 20 46 7.8 45 45 N 15 24 30.18 1022 10 16 0.00 0.00
11:53 am 11:53 Sunny 72 22.2 45 7.2 38 38 NNE 15 24 30.16 1021 10 16 0.00 0.00
12:53 pm 12:53 Sunny 73 22.8 44 6.7 35 35 N 14 22 30.13 1020 10 16 0.00 0.00
1:53 pm 13:53 Sunny 75 23.9 42 5.6 31 31 N 18 30 30.10 1019 10 16 0.00 0.00
2:53 pm 14:53 Sunny 76 24.4 42 5.6 30 30 N 12 19 30.06 1018 10 16 0.00 0.00
3:53 pm 15:53 Sunny 76 24.4 42 5.6 30 30 N 20 31 30.04 1017 10 16 0.00 0.00
4:53 pm 16:53 Sunny 75 23.9 42 5.6 31 31 N 16 26 30.03 1017 10 16 0.00 0.00
5:53 pm 17:53 Sunny 73 22.8 41 5 31 31 NNE 20 31 30.03 1017 10 16 0.00 0.00
6:53 pm 18:53 Sunny 68 20 43 6.1 40 40 N 10 17 30.03 1017 10 16 0.00 0.00
7:53 pm 19:53 Clear 66 18.9 43 6.1 43 43 NNE 14 22 30.04 1017 10 16 0.00 0.00
8:53 pm 20:53 Clear 64 17.8 44 6.7 48 48 NNE 12 19 30.06 1018 10 16 0.00 0.00
9:53 pm 21:53 Clear 62 16.7 46 7.8 56 56 NNE 8 13 30.07 1018 10 16 0.00 0.00
10:53 pm 22:53 Clear 61 16.1 47 8.3 60 60 NNE 6 9 30.08 1019 10 16 0.00 0.00
11:53 pm 23:53 Clear 58 14.4 46 7.8 65 65 N 6 9 30.06 1018 10 16 0.00 0.00

Powered by AerisWeather